Regional Weather Roundup
Issued by NWS

Home | Current Version | Previous Version | Text Only | Print | Product List | Glossary Off
Versions: 1 2 3 4 5 6 7 8 9 10 11 12 13 14 15 16 17 18 19 20 21 22 23 24 25 26 27 28 29 30 31 32 33 34 35 36 37 38 39 40 41 42 43 44 45 46 47 48 49 50

453
ASUS43 KFSD 260310
RWRSD

WEATHER ROUNDUP FOR SOUTH DAKOTA
NATIONAL WEATHER SERVICE SIOUX FALLS SD
900 PM CST SAT FEB 25 2017

NOTE: "FAIR" INDICATES FEW OR NO CLOUDS BELOW 12,000 FEET WITH NO
SIGNIFICANT WEATHER AND/OR OBSTRUCTIONS TO VISIBILITY.


SDZ001>005-009-010-012>017-260400-
NORTHWEST AND NORTH CENTRAL SOUTH DAKOTA

CITY           SKY/WX    TMP DP  RH WIND       PRES   REMARKS
BUFFALO          N/A     21  17  84 W10       29.60F WCI  10
FAITH            N/A     27  25  92 SW14      29.69S WCI  16
MOBRIDGE       MOCLDY    25  20  81 S3        29.67F
$$

SDZ012>016-024>037-041>051-057-063-072>074-260400-
SOUTHWEST AND SOUTH CENTRAL SOUTH DAKOTA

CITY           SKY/WX    TMP DP  RH WIND       PRES   REMARKS
RAPID CTY ARPT CLEAR     20  17  88 NW9       29.70S WCI   9
PIERRE         CLEAR     26  21  81 S5        29.73F WCI  20
CUSTER         CLEAR     12   5  73 W5        29.61S WCI   4
ELLSWORTH AFB  CLEAR     19  18  96 W8        29.69S WCI   9
PHILIP         PTCLDY    25  19  78 W5        29.74S WCI  19
PINE RIDGE     CLEAR     15   7  70 SW8       29.73F WCI   4
SPEARFISH      SNOW      23  21  93 NW9G21    29.70R VSB 1/2 WCI  13
WINNER         MOCLDY    27  19  72 SW9       29.76F WCI  18
$$

SDZ004>011-016>023-039-040-260400-
NORTHEAST SOUTH DAKOTA

CITY           SKY/WX    TMP DP  RH WIND       PRES   REMARKS
ABERDEEN       PTCLDY    21  19  92 CALM      29.74F
WATERTOWN      FLURRIES  26  22  84 S14       29.71F WCI  14
BROOKINGS      PTCLDY    23  19  85 S12       29.76S WCI  12
SISSETON         N/A     28  26  92 N8        29.73F WCI  20
$$

SDZ017-020-022-023-036>040-048>070-260400-
SOUTHEAST SOUTH DAKOTA

CITY           SKY/WX    TMP DP  RH WIND       PRES   REMARKS
SIOUX FALLS    CLOUDY    23  18  81 S12       29.80F WCI  12
HURON          CLEAR     27  22  81 SW7       29.77R WCI  19
CHAMBERLAIN    PTCLDY    30  26  86 SW3       29.77S
MITCHELL       CLOUDY    29  21  72 SW9       29.80S WCI  20
YANKTON        CLEAR     25  16  68 SW7       29.83S WCI  17
$$

ABBREVIATIONS USED IN REMARKS
   TC - TEMPERATURE IN CELSIUS
  WCI - WIND CHILL INDEX
   HX - HEAT INDEX
  VSB - VISIBILITY





USA.gov is the U.S. government's official web portal to all federal, state and local government web resources and services.